Overview Statistics Trail Chart Weather Telemetry Raw packets
 

This is the latest recevied weather packets stored in our database for station/object SR4DIG-13. If no packets are shown the sender has not sent any weather packets the latest 10 day(s).

<< 51 52 53 54 55 56 57 >>
Time Temp. Humidity Pressure Rain* Wind** Luminosity Snow
1788277910 17.78° C 70% 1013.3 hPa 0 mm - - -
1788277609 17.78° C 71% 1013.3 hPa 0 mm - - -
1788277308 18.33° C 70% 1013.3 hPa 0 mm - - -
1788277007 18.33° C 70% 1013.3 hPa 0 mm - - -
1788276706 18.33° C 71% 1013.2 hPa 0 mm - - -
1788276406 18.33° C 71% 1013.2 hPa 0 mm - - -
1788276105 18.33° C 70% 1013.1 hPa 0 mm - - -
1788275646 18.33° C 69% 1013 hPa 0 mm - - -
1788275243 18.89° C 69% 1013 hPa 0 mm - - -
1788274942 18.89° C 69% 1013 hPa 0 mm - - -
1788274641 18.33° C 69% 1013 hPa 0 mm - - -
1788274340 18.33° C 69% 1012.9 hPa 0 mm - - -
1788274039 18.33° C 68% 1013 hPa 0 mm - - -
1788273738 18.33° C 67% 1013.1 hPa 0 mm - - -
1788273437 18.89° C 67% 1012.9 hPa 0 mm - - -
1788273136 19.44° C 66% 1013.1 hPa 0 mm - - -
1788272835 20° C 65% 1013.1 hPa 0 mm - - -
1788272535 20° C 66% 1013 hPa 0 mm - - -
1788271933 20° C 66% 1013.2 hPa 0 mm - - -
1788271632 20.56° C 65% 1013 hPa 0 mm - - -
1788271331 20° C 67% 1013 hPa 0 mm - - -
1788271030 19.44° C 68% 1013.2 hPa 0 mm - - -
1788270729 18.89° C 68% 1013.2 hPa 0 mm - - -
1788270429 18.89° C 68% 1013.2 hPa 0 mm - - -
1788270127 19.44° C 66% 1013 hPa 0 mm - - -

* Rain latest hour (hover to see other rain measurements)
** Current wind speed in m/s (hover to see current wind gust speed)